BAW2158 TGPY-TBPB

Flight info

Callsign BAW2158
Flight time 0h 29m
Altitude 19000
Route GND A561 BGI
Aircraft B772/H-SDE2E3FGHIJ5LORVWXY/LB1D1

Departure

Time 2026-04-26 23:44
Airport Maurice Bishop International Airport (TGPY)

Arrival

Time 2026-04-27 00:13
Airport Grantley Adams International Airport (TBPB)
Time Latitude Longitude Altitude Speed Heading
2026-04-26 22:59 12.00652 -61.78636 45 ft 0 kts
2026-04-26 23:33 12.00643 -61.78636 46 ft 4 kts 358°
2026-04-26 23:33 12.00617 -61.78633 44 ft 4 kts 346°
2026-04-26 23:34 12.00591 -61.78624 44 ft 4 kts 326°
2026-04-26 23:34 12.00574 -61.78606 42 ft 4 kts 288°
2026-04-26 23:34 12.00571 -61.78593 43 ft 1 kts 272°
2026-04-26 23:34 12.00571 -61.78591 43 ft 1 kts 272°
2026-04-26 23:37 12.00571 -61.78608 42 ft 6 kts 270°
2026-04-26 23:37 12.00590 -61.78655 38 ft 8 kts 340°
2026-04-26 23:38 12.00612 -61.78614 33 ft 8 kts 118°
2026-04-26 23:38 12.00548 -61.78595 31 ft 13 kts 181°
2026-04-26 23:38 12.00436 -61.78607 46 ft 19 kts 212°
2026-04-26 23:38 12.00407 -61.78766 46 ft 30 kts 270°
2026-04-26 23:39 12.00408 -61.79004 45 ft 34 kts 270°
2026-04-26 23:39 12.00410 -61.79236 43 ft 31 kts 270°
2026-04-26 23:39 12.00411 -61.79451 41 ft 30 kts 270°
2026-04-26 23:39 12.00413 -61.79664 40 ft 28 kts 270°
2026-04-26 23:40 12.00440 -61.79798 39 ft 15 kts 289°
2026-04-26 23:40 12.00449 -61.79835 38 ft 0 kts 292°
2026-04-26 23:40 12.00450 -61.79838 38 ft 0 kts 295°
2026-04-26 23:41 12.00451 -61.79840 38 ft 0 kts 298°
2026-04-26 23:41 12.00413 -61.79846 37 ft 0 kts 90°
2026-04-26 23:43 12.00413 -61.79845 38 ft 3 kts 90°
2026-04-26 23:43 12.00415 -61.79634 40 ft 59 kts 90°
2026-04-26 23:43 12.00416 -61.78952 44 ft 132 kts 91°
2026-04-26 23:43 12.00397 -61.77889 436 ft 161 kts 93°
2026-04-26 23:44 12.00363 -61.76690 996 ft 181 kts 90°
2026-04-26 23:44 12.00400 -61.75327 1666 ft 201 kts 89°
2026-04-26 23:44 12.00466 -61.73842 2307 ft 218 kts 89°
2026-04-26 23:44 12.00544 -61.72292 2886 ft 218 kts 88°
2026-04-26 23:45 12.00612 -61.70742 3479 ft 217 kts 88°
2026-04-26 23:45 12.00848 -61.69251 4006 ft 212 kts 66°
2026-04-26 23:45 12.01873 -61.68171 4573 ft 219 kts 38°
2026-04-26 23:45 12.02951 -61.67098 5093 ft 219 kts 63°
2026-04-26 23:46 12.03652 -61.65689 5714 ft 226 kts 65°
2026-04-26 23:46 12.04393 -61.64268 6298 ft 230 kts 63°
2026-04-26 23:46 12.05168 -61.62823 6870 ft 239 kts 64°
2026-04-26 23:46 12.06009 -61.61268 7508 ft 260 kts 64°
2026-04-26 23:47 12.06925 -61.59587 8126 ft 278 kts 63°
2026-04-26 23:47 12.07883 -61.57842 8720 ft 284 kts 63°
2026-04-26 23:47 12.08870 -61.56052 9343 ft 292 kts 63°
2026-04-26 23:47 12.09875 -61.54234 9940 ft 295 kts 63°
2026-04-26 23:48 12.10879 -61.52421 10489 ft 297 kts 63°
2026-04-26 23:48 12.11900 -61.50576 11052 ft 299 kts 63°
2026-04-26 23:48 12.12928 -61.48721 11618 ft 301 kts 63°
2026-04-26 23:48 12.13986 -61.46805 11974 ft 323 kts 63°
2026-04-26 23:49 12.15137 -61.44718 12250 ft 349 kts 63°
2026-04-26 23:49 12.16355 -61.42517 12990 ft 361 kts 63°
2026-04-26 23:49 12.17604 -61.40264 13881 ft 368 kts 62°
2026-04-26 23:49 12.18874 -61.37973 14744 ft 373 kts 63°
2026-04-26 23:50 12.20158 -61.35651 15653 ft 377 kts 63°
2026-04-26 23:50 12.21452 -61.33313 16633 ft 379 kts 63°
2026-04-26 23:50 12.22685 -61.30917 17602 ft 381 kts 66°
2026-04-26 23:50 12.23846 -61.28472 18426 ft 383 kts 67°
2026-04-26 23:51 12.24996 -61.26006 18910 ft 384 kts 66°
2026-04-26 23:51 12.26163 -61.23492 18997 ft 402 kts 66°
2026-04-26 23:51 12.27368 -61.20897 19015 ft 412 kts 66°
2026-04-26 23:51 12.28609 -61.18239 19005 ft 417 kts 67°
2026-04-26 23:52 12.29862 -61.15558 19002 ft 418 kts 66°
2026-04-26 23:52 12.31118 -61.12882 19000 ft 416 kts 66°
2026-04-26 23:52 12.32370 -61.10214 18999 ft 415 kts 66°
2026-04-26 23:52 12.33618 -61.07558 19002 ft 414 kts 66°
2026-04-26 23:53 12.34863 -61.04906 19007 ft 413 kts 66°
2026-04-26 23:53 12.36108 -61.02252 19004 ft 413 kts 66°
2026-04-26 23:53 12.37348 -60.99601 19012 ft 413 kts 66°
2026-04-26 23:53 12.38589 -60.96948 19010 ft 414 kts 66°
2026-04-26 23:54 12.39834 -60.94291 19020 ft 414 kts 66°
2026-04-26 23:54 12.41078 -60.91632 19013 ft 415 kts 66°
2026-04-26 23:54 12.42330 -60.88956 19013 ft 415 kts 66°
2026-04-26 23:54 12.43563 -60.86324 19016 ft 416 kts 66°
2026-04-26 23:55 12.44817 -60.83647 19018 ft 416 kts 66°
2026-04-26 23:55 12.46065 -60.80976 19019 ft 417 kts 67°
2026-04-26 23:55 12.47318 -60.78294 19013 ft 417 kts 66°
2026-04-26 23:55 12.48571 -60.75611 19013 ft 417 kts 66°
2026-04-26 23:56 12.49821 -60.72934 19020 ft 417 kts 66°
2026-04-26 23:56 12.51074 -60.70254 19022 ft 417 kts 66°
2026-04-26 23:56 12.52329 -60.67569 19017 ft 417 kts 66°
2026-04-26 23:56 12.53580 -60.64884 19016 ft 417 kts 66°
2026-04-26 23:57 12.54828 -60.62205 19017 ft 417 kts 66°
2026-04-26 23:57 12.56078 -60.59527 19017 ft 417 kts 66°
2026-04-26 23:57 12.57329 -60.56854 19024 ft 415 kts 66°
2026-04-26 23:57 12.58560 -60.54234 18997 ft 402 kts 65°
2026-04-26 23:58 12.59827 -60.51690 18557 ft 400 kts 63°
2026-04-26 23:58 12.61133 -60.49229 18015 ft 397 kts 63°
2026-04-26 23:58 12.62466 -60.46766 17464 ft 394 kts 63°
2026-04-26 23:58 12.63794 -60.44323 16934 ft 390 kts 63°
2026-04-26 23:59 12.65103 -60.41904 16417 ft 387 kts 62°
2026-04-26 23:59 12.66394 -60.39506 15902 ft 383 kts 63°
2026-04-26 23:59 12.67672 -60.37117 15394 ft 380 kts 63°
2026-04-26 23:59 12.68936 -60.34750 14882 ft 377 kts 63°
2026-04-27 00:00 12.70190 -60.32398 14356 ft 375 kts 62°
2026-04-27 00:00 12.71437 -60.30057 13854 ft 373 kts 63°
2026-04-27 00:00 12.72667 -60.27747 13281 ft 364 kts 63°
2026-04-27 00:00 12.73878 -60.25471 12767 ft 361 kts 63°
2026-04-27 00:01 12.75060 -60.23247 12251 ft 358 kts 64°
2026-04-27 00:01 12.76248 -60.21014 11751 ft 356 kts 63°
2026-04-27 00:01 12.77429 -60.18794 11238 ft 353 kts 63°
2026-04-27 00:01 12.78602 -60.16585 10750 ft 351 kts 64°
2026-04-27 00:02 12.79755 -60.14417 10522 ft 340 kts 64°
2026-04-27 00:02 12.80868 -60.12324 10359 ft 328 kts 63°
2026-04-27 00:02 12.81945 -60.10300 10209 ft 316 kts 64°
2026-04-27 00:02 12.82980 -60.08353 10071 ft 305 kts 63°
2026-04-27 00:03 12.83984 -60.06463 9855 ft 298 kts 63°
2026-04-27 00:03 12.84969 -60.04609 9527 ft 294 kts 64°
2026-04-27 00:03 12.85933 -60.02791 9154 ft 292 kts 63°
2026-04-27 00:03 12.86902 -60.00961 8780 ft 291 kts 63°
2026-04-27 00:04 12.87866 -59.99141 8418 ft 289 kts 64°
2026-04-27 00:04 12.88826 -59.97330 8046 ft 289 kts 64°
2026-04-27 00:04 12.89775 -59.95541 7705 ft 279 kts 63°
2026-04-27 00:04 12.90683 -59.93827 7337 ft 269 kts 63°
2026-04-27 00:05 12.91576 -59.92143 7016 ft 268 kts 63°
2026-04-27 00:05 12.92467 -59.90459 6704 ft 267 kts 64°
2026-04-27 00:05 12.93343 -59.88802 6390 ft 267 kts 63°
2026-04-27 00:05 12.94227 -59.87131 6060 ft 267 kts 64°
2026-04-27 00:06 12.95112 -59.85459 5762 ft 264 kts 63°
2026-04-27 00:06 12.95981 -59.83816 5494 ft 260 kts 63°
2026-04-27 00:06 12.96839 -59.82191 5207 ft 257 kts 63°
2026-04-27 00:06 12.97668 -59.80620 4939 ft 243 kts 63°
2026-04-27 00:07 12.98446 -59.79151 4733 ft 227 kts 63°
2026-04-27 00:07 12.99180 -59.77766 4450 ft 216 kts 64°
2026-04-27 00:07 12.99879 -59.76447 4163 ft 206 kts 63°
2026-04-27 00:07 13.00553 -59.75175 3901 ft 202 kts 63°
2026-04-27 00:08 13.01213 -59.73930 3659 ft 201 kts 64°
2026-04-27 00:08 13.01757 -59.72631 3371 ft 196 kts 75°
2026-04-27 00:08 13.02096 -59.71288 3128 ft 194 kts 77°
2026-04-27 00:08 13.02410 -59.69952 2909 ft 191 kts 77°
2026-04-27 00:09 13.02720 -59.68639 2702 ft 188 kts 77°
2026-04-27 00:09 13.03027 -59.67355 2517 ft 183 kts 77°
2026-04-27 00:09 13.03328 -59.66113 2384 ft 177 kts 77°
2026-04-27 00:09 13.03624 -59.64900 2208 ft 174 kts 77°
2026-04-27 00:10 13.03917 -59.63705 2119 ft 172 kts 76°
2026-04-27 00:10 13.04205 -59.62532 2048 ft 167 kts 77°
2026-04-27 00:10 13.04487 -59.61387 2041 ft 167 kts 77°
2026-04-27 00:10 13.04769 -59.60235 1989 ft 169 kts 77°
2026-04-27 00:11 13.05049 -59.59087 1774 ft 158 kts 77°
2026-04-27 00:11 13.05313 -59.58009 1560 ft 154 kts 76°
2026-04-27 00:11 13.05572 -59.56949 1357 ft 152 kts 76°
2026-04-27 00:11 13.05828 -59.55897 1177 ft 148 kts 76°
2026-04-27 00:12 13.06079 -59.54872 983 ft 145 kts 75°
2026-04-27 00:12 13.06318 -59.53894 827 ft 140 kts 76°
2026-04-27 00:12 13.06548 -59.52948 633 ft 135 kts 78°
2026-04-27 00:12 13.06765 -59.52050 410 ft 131 kts 78°
2026-04-27 00:13 13.06987 -59.51140 292 ft 129 kts 76°
2026-04-27 00:13 13.07204 -59.50258 195 ft 126 kts 77°
2026-04-27 00:13 13.07396 -59.49485 180 ft 88 kts 76°
2026-04-27 00:13 13.07516 -59.49018 179 ft 48 kts 70°
2026-04-27 00:14 13.07586 -59.48704 179 ft 44 kts 77°
2026-04-27 00:14 13.07663 -59.48411 177 ft 40 kts 71°
2026-04-27 00:14 13.07795 -59.48353 178 ft 21 kts 344°
2026-04-27 00:14 13.07860 -59.48450 180 ft 19 kts 256°
2026-04-27 00:15 13.07833 -59.48545 180 ft 0 kts 255°
2026-04-27 00:15 13.07828 -59.48563 180 ft 9 kts 255°
2026-04-27 00:15 13.07803 -59.48669 180 ft 12 kts 256°
2026-04-27 00:16 13.07799 -59.48720 180 ft 7 kts 295°
2026-04-27 00:16 13.07839 -59.48742 180 ft 7 kts 346°
2026-04-27 00:16 13.07859 -59.48747 180 ft 4 kts 345°
2026-04-27 00:16 13.07877 -59.48751 181 ft 2 kts 346°